Location: Three Guys Observatory
(38.6418°N, 87.1521°W)
Time: 22:11:40
(UTC-04:00)

ISS - Visible Passes

Search period start: 21 September 2014 00:00
Search period end: 01 October 2014 00:00
Orbit: 413 x 417 km, 51.6° (Epoch: 21 September)

Date Brightness Start Highest point End Pass type
(mag) Time Alt. Az. Time Alt. Az. Time Alt. Az.
21 Sep -0.4 05:41:17 11° N 05:41:17 11° N 05:42:02 10° N visible
24 Sep -0.4 06:28:12 10° N 06:29:17 11° NNE 06:30:22 10° NNE visible
26 Sep -0.7 06:26:06 10° NNW 06:28:24 17° NNE 06:30:41 10° ENE visible
27 Sep -0.5 05:38:20 12° N 05:39:05 13° NNE 05:40:45 10° NE visible
28 Sep -1.7 06:24:25 12° NNW 06:27:11 32° NNE 06:30:13 10° E visible
29 Sep -1.1 05:37:43 22° NNE 05:37:54 22° NNE 05:40:33 10° E visible
29 Sep -3.0 07:11:31 10° WNW 07:14:45 49° SW 07:17:58 10° SSE visible
30 Sep -3.3 06:24:02 29° NW 06:25:37 86° NE 06:28:56 10° SE visible
